Theta_e
337 339 339 340 342 341 341 339 337 338 337 337 337 335 334 332 331 331 332 343 347 351 355 356 355 355 354 352 351 350 350 351 348 342 341 341 342 344 346 345 339 344 343
337 338 337 339 340 341 340 339 336 336 336 335 335 335 334 332 335 338 337 337 346 349 350 353 354 351 348 348 350 349 348 347 342 342 343 342 341 345 343 341 339 337 337
337 337 337 336 338 339 339 339 338 336 336 336 335 335 336 339 339 338 339 338 340 345 350 351 351 350 348 352 349 349 348 347 345 344 344 345 343 340 340 340 336 335 336
336 336 338 337 339 339 339 338 337 335 334 332 334 336 336 337 336 336 336 337 338 339 341 348 350 351 351 350 351 351 350 348 346 346 344 342 341 340 340 340 337 336 336
338 338 342 341 343 342 339 338 335 335 334 335 334 335 334 332 333 334 332 335 336 337 336 339 344 347 350 351 353 354 353 350 346 345 343 342 341 340 339 339 338 337 335
342 343 345 345 343 340 339 338 335 335 334 333 333 332 330 329 329 328 330 333 333 334 335 336 339 342 347 350 352 354 353 352 350 347 344 342 340 340 339 339 339 337 335
346 344 344 343 341 339 338 337 334 332 329 329 325 324 324 325 325 327 328 330 333 333 336 338 338 338 338 344 346 349 350 351 351 349 345 341 340 340 340 339 339 338 335
346 346 343 341 342 340 338 334 331 328 327 327 324 319 314 318 323 326 325 326 323 325 328 327 327 327 330 335 339 343 346 347 348 346 343 342 340 340 340 339 339 338 336
348 346 342 341 341 339 336 334 332 328 325 325 324 319 312 311 316 320 321 320 320 321 322 325 327 327 325 326 329 332 337 340 341 345 344 342 342 342 340 339 339 338 336
347 345 343 339 339 337 334 332 332 328 325 321 320 325 322 319 315 314 318 320 320 320 319 321 319 319 319 319 323 327 329 332 335 338 342 343 342 343 341 340 339 337 335
342 343 338 336 335 336 333 332 330 327 325 324 323 324 321 319 317 317 313 319 322 322 320 317 316 316 316 316 315 319 328 328 330 330 332 335 338 339 340 339 339 336 334
336 335 336 335 332 331 330 327 323 323 322 323 324 323 324 322 321 319 317 317 314 317 317 318 314 314 315 314 321 327 326 324 323 323 324 327 329 331 333 335 335 333 332
331 328 328 327 325 324 324 324 321 318 315 315 314 315 316 319 319 315 312 311 309 311 312 312 313 313 315 313 315 322 323 323 320 320 320 322 324 326 329 330 330 330 330
326 326 323 321 320 319 318 315 312 311 310 310 308 308 309 310 309 310 309 307 304 305 308 307 311 313 311 313 318 322 313 319 319 319 318 319 321 323 325 327 328 328 327
318 316 314 313 312 312 310 308 307 306 305 305 304 304 304 305 306 306 306 305 302 300 301 305 304 310 311 313 315 314 312 317 319 318 318 318 319 320 321 322 322 323 324
311 311 310 308 306 305 304 304 303 303 302 301 303 302 302 303 303 304 304 303 303 303 301 307 307 308 309 310 312 313 312 317 316 316 317 317 317 318 319 319 319 320 321
309 308 306 305 304 302 302 300 300 301 300 299 300 301 302 302 302 302 302 302 302 302 303 306 307 308 307 308 309 310 312 311 311 314 316 316 316 315 316 317 317 317 318
306 305 304 303 302 301 299 299 299 299 298 299 300 300 302 306 302 303 305 304 305 306 304 300 303 304 304 306 307 307 309 311 311 313 315 315 313 312 313 313 313 313 313
303 303 302 300 300 299 298 298 298 298 298 299 300 300 302 303 304 302 300 299 299 300 300 298 298 301 302 304 304 306 306 307 310 313 312 312 311 311 311 312 311 311 310
302 301 300 299 298 298 298 298 298 297 297 299 301 303 303 304 299 297 297 296 297 296 296 296 297 298 300 302 303 302 302 304 304 308 310 310 310 310 310 311 313 313 310
302 300 299 297 296 297 297 296 297 296 296 298 300 302 300 301 301 299 297 296 296 295 295 295 295 296 296 298 298 300 299 301 303 304 304 305 306 308 309 311 313 314 311
299 298 296 296 294 297 296 298 298 294 295 296 296 295 296 298 298 298 298 299 298 295 294 294 294 293 295 297 298 298 297 297 296 305 305 303 306 305 308 309 309 309 307
298 296 296 296 295 294 295 296 299 293 294 294 294 293 296 296 296 295 296 297 297 298 298 296 294 294 294 296 297 296 297 298 298 302 303 300 303 302 304 306 305 305 305
297 295 295 295 295 293 294 294 296 292 292 294 294 294 295 294 295 294 293 294 295 296 297 297 296 297 298 299 299 299 299 299 301 302 303 298 303 302 305 305 304 305 304
294 296 295 295 292 289 293 293 292 291 292 293 295 294 295 294 294 294 293 293 293 294 298 299 299 298 297 298 300 302 301 300 298 300 303 301 301 303 305 305 307 306 304
290 295 294 294 293 290 292 292 292 289 289 291 293 295 296 293 293 293 292 293 291 293 294 296 298 300 301 303 304 305 303 299 299 299 304 301 303 304 301 307 306 306 306
Wind_Speed
4 3 4 3 4 3 4 4 4 4 5 5 6 6 7 6 6 4 5 15 14 13 11 9 10 11 10 13 14 15 14 10 6 2 5 9 15 23 18 11 6 0 2
5 4 4 5 4 5 4 4 5 5 6 4 6 5 6 6 5 4 3 5 9 11 9 10 10 7 11 19 18 14 17 14 11 9 11 12 21 15 8 5 3 1 1
7 6 5 4 6 3 4 4 4 4 4 3 6 5 4 3 4 5 5 4 5 8 11 13 13 14 19 21 18 18 18 15 13 12 13 14 12 12 8 9 8 6 4
8 5 4 4 3 4 4 4 3 3 3 3 3 3 4 4 6 7 5 6 5 4 8 13 17 18 19 19 20 20 19 16 11 12 12 12 12 12 12 12 10 10 9
8 5 4 4 4 3 3 3 1 1 0 1 4 5 4 4 6 5 7 5 7 7 5 12 18 18 16 19 20 21 18 14 13 13 14 13 14 15 15 14 14 14 12
9 6 3 5 5 4 3 2 2 1 3 3 4 5 5 5 4 5 6 6 5 7 7 7 5 6 14 17 19 16 18 16 13 14 16 16 17 17 17 17 16 15 13
5 6 3 4 4 3 3 3 2 0 2 3 3 4 4 5 5 4 4 5 6 5 5 4 4 3 5 14 14 18 20 18 17 16 16 16 18 19 19 19 16 14 15
7 9 6 5 5 4 4 2 2 1 1 0 1 0 5 5 4 4 4 4 6 4 5 5 6 5 5 6 8 13 17 19 20 19 19 17 19 19 18 17 17 16 16
2 3 2 4 5 3 3 1 2 3 1 1 3 3 2 4 4 2 4 3 4 4 5 4 6 7 7 5 8 10 13 14 18 20 23 21 21 20 20 20 19 18 16
5 4 7 4 5 3 4 2 2 2 2 1 2 2 3 3 3 6 3 2 3 3 5 6 5 5 6 5 11 14 14 16 17 19 19 21 22 23 22 20 20 18 18
9 4 3 4 3 4 3 6 4 4 2 1 0 2 2 2 1 2 4 7 6 5 4 4 5 5 5 5 5 8 12 13 15 16 16 16 18 21 22 21 20 18 17
5 3 3 6 7 6 7 6 6 8 5 4 3 2 1 2 3 3 4 7 8 8 5 6 4 4 5 4 7 9 11 11 12 13 16 16 16 16 15 16 16 19 19
3 4 5 8 7 7 9 9 8 8 6 5 4 3 3 3 2 3 3 5 5 5 5 4 4 4 5 4 6 14 14 12 14 13 14 16 16 16 15 13 14 18 20
4 8 7 11 11 12 9 7 5 5 5 5 7 6 3 4 3 3 3 5 10 6 7 7 7 7 5 9 12 20 7 12 14 14 15 17 17 19 19 17 16 17 20
8 11 12 12 12 11 7 6 6 8 6 5 5 5 4 4 4 3 4 2 4 11 11 8 4 10 7 8 12 12 12 16 19 17 16 18 18 19 18 18 17 18 18
12 12 11 11 9 8 10 10 6 6 6 5 4 6 4 3 5 4 4 3 3 5 10 9 9 8 9 9 14 15 14 21 20 18 19 19 18 17 19 19 18 17 17
10 11 10 11 11 10 8 7 7 6 6 5 5 5 6 5 4 4 4 3 4 3 11 10 10 11 12 11 10 11 12 12 11 20 20 19 16 15 18 19 18 17 17
11 11 10 10 9 8 7 7 6 5 5 6 6 6 6 6 6 5 6 8 8 8 10 16 14 13 15 14 13 13 10 10 10 16 20 15 12 13 13 16 16 15 15
10 10 11 10 8 7 7 6 4 5 5 5 5 6 7 7 10 9 10 9 9 9 9 10 12 10 11 10 12 11 11 10 8 17 18 16 15 15 15 14 12 12 13
10 10 8 8 7 7 8 7 7 6 6 6 6 7 8 11 12 11 10 11 10 10 10 9 9 10 9 11 9 9 9 9 10 11 15 15 17 17 17 17 15 13 12
9 8 8 7 6 9 8 9 6 6 6 7 8 8 10 14 17 14 9 11 12 10 9 8 9 9 10 9 9 8 10 9 10 11 9 8 7 8 8 10 10 12 11
8 8 8 8 10 8 16 15 10 6 6 6 7 8 7 11 13 19 20 19 15 11 11 8 9 9 11 10 9 8 9 8 6 5 3 9 8 9 8 7 11 10 9
7 8 7 7 8 8 17 17 15 6 5 5 5 6 9 9 12 13 17 17 14 15 13 10 12 11 12 11 11 12 11 10 9 9 7 9 5 8 7 7 10 12 9
7 6 7 7 7 8 18 17 14 7 6 5 6 6 9 10 13 16 14 14 13 10 10 9 9 12 11 13 12 11 12 10 8 8 6 4 3 8 7 4 9 7 5
6 6 6 8 8 6 15 17 13 6 7 7 5 5 10 12 19 20 14 14 15 14 15 16 16 16 16 17 15 6 7 7 7 3 2 3 3 6 2 3 2 5 7
6 6 7 8 11 8 13 15 13 5 7 6 6 8 13 16 18 19 12 12 14 14 15 19 19 17 16 15 16 4 6 6 6 3 1 4 3 4 4 1 2 3 6
Wind_Direction
198 195 217 206 212 199 214 219 223 233 244 247 250 244 259 254 258 262 271 285 294 287 264 242 237 240 256 263 263 263 258 244 241 244 312 322 306 279 252 246 286 173 78
192 201 213 223 227 214 217 216 216 222 238 231 261 246 255 258 261 283 297 297 300 283 264 258 247 247 264 264 253 257 264 235 226 236 250 237 250 248 227 239 234 181 158
195 198 197 217 232 224 234 248 260 269 273 289 277 292 284 293 286 284 281 275 288 292 279 256 246 262 251 250 255 247 247 247 238 242 242 227 221 228 219 226 225 225 213
196 204 199 212 217 222 219 217 206 231 235 259 296 288 282 284 285 270 259 259 252 256 276 276 264 259 252 252 254 250 254 246 240 236 231 229 224 220 219 220 224 223 208
181 191 207 191 190 206 200 184 118 159 244 295 255 258 264 264 260 282 286 257 255 249 245 258 260 258 255 262 263 268 266 247 235 230 231 225 228 225 224 221 221 219 216
178 178 200 191 161 176 122 106 131 133 191 259 306 308 290 273 276 271 288 289 254 240 247 250 269 274 253 255 258 259 258 254 248 241 236 231 229 229 228 227 224 222 226
176 161 161 212 154 143 145 130 117 120 354 39 350 321 297 273 269 270 289 296 315 323 295 283 287 271 280 272 273 272 264 261 257 246 243 237 237 235 232 230 226 225 231
187 180 168 215 145 123 138 124 132 92 9 150 220 338 326 327 327 278 291 302 301 335 328 331 306 293 293 322 292 286 280 282 269 263 257 242 243 246 241 235 230 228 230
112 116 145 188 130 133 108 132 156 146 184 316 216 170 322 263 332 292 283 302 327 345 323 324 334 348 344 322 312 302 302 294 294 283 267 252 242 236 233 234 232 230 230
50 21 215 150 128 111 107 100 90 85 116 283 344 280 257 227 277 313 299 309 335 313 324 329 338 322 319 323 328 322 312 307 303 294 285 278 261 246 243 229 228 228 233
51 205 139 101 92 81 79 62 51 43 62 35 5 327 318 336 63 280 296 313 316 320 312 310 304 309 319 315 311 311 331 348 343 338 331 318 300 284 266 250 233 244 243
20 333 91 96 67 61 63 67 61 54 41 50 18 9 19 325 327 314 289 301 293 308 309 285 303 313 311 307 316 340 329 331 333 331 328 326 324 319 313 278 249 256 256
205 73 64 69 65 68 60 56 51 47 34 43 21 9 11 360 348 302 295 288 274 301 301 297 302 304 293 307 295 312 312 306 304 298 298 294 290 286 278 270 257 255 259
138 103 83 67 57 55 53 55 53 52 47 42 30 20 346 343 358 338 303 309 309 293 293 276 308 302 322 317 302 309 302 296 282 278 281 283 281 278 268 262 256 260 264
81 67 67 67 57 55 56 61 55 38 35 19 14 4 339 315 331 307 282 276 282 310 307 305 330 302 303 296 296 298 297 291 290 289 275 270 271 274 275 266 258 258 264
73 73 69 70 72 59 45 40 40 24 25 6 1 352 323 312 314 309 295 283 256 287 298 316 300 289 290 292 295 301 296 297 296 290 284 283 273 261 264 262 257 254 257
79 82 78 71 59 51 40 39 29 21 17 352 342 339 327 305 301 288 292 277 271 273 296 306 307 309 298 293 294 293 293 295 298 299 296 287 277 264 268 261 259 256 252
72 75 74 71 62 48 36 37 26 3 1 356 343 334 307 329 312 315 341 328 327 315 308 307 302 305 302 313 300 296 295 293 294 298 295 301 316 309 282 264 263 255 252
80 73 69 63 55 44 31 26 13 4 354 343 326 320 323 330 2 358 343 329 316 310 307 296 298 303 300 308 306 303 300 294 295 302 298 297 294 296 293 277 272 264 254
77 71 67 66 54 45 33 15 13 1 357 343 334 345 340 24 6 350 328 322 319 311 301 296 298 301 305 307 299 310 309 308 303 296 292 288 291 294 291 281 263 261 262
74 72 69 53 42 43 24 11 0 1 357 355 353 1 4 8 354 336 326 318 316 307 304 303 304 304 306 313 315 313 303 303 297 287 286 286 282 291 291 293 281 273 264
76 72 57 53 40 36 15 20 22 9 3 11 7 5 348 359 343 342 337 328 318 308 304 307 302 298 295 305 302 305 300 306 307 260 295 291 289 290 289 270 259 256 256
74 62 47 45 47 28 14 16 18 8 5 355 355 353 359 353 354 346 337 332 321 324 311 302 294 296 299 298 298 296 292 290 290 290 288 291 297 284 277 271 273 272 263
70 60 50 38 39 26 18 11 4 358 339 344 7 352 5 354 357 354 336 334 336 334 332 319 293 291 290 292 287 282 285 282 283 280 269 278 301 289 289 266 263 274 289
54 68 58 44 35 15 16 9 1 340 357 348 347 335 13 1 354 352 346 336 340 332 329 328 326 312 302 298 298 305 332 323 315 295 353 277 293 304 323 351 38 4 308
50 54 48 41 28 11 8 2 5 354 357 348 340 8 11 2 353 352 345 343 338 333 331 336 340 342 344 336 332 347 322 330 327 313 298 310 312 336 324 6 345 355 346